Weather History for KSDA - November, 2013

Change the Weather History Date:

Thursday, November 21, 2013

  Actual Average Record
Temperature  
Mean Temperature 31 °F -  
Max Temperature 39 °F 47 °F 75 °F (2012)
Min Temperature 23 °F 26 °F 4 °F (1964)
Degree Days  
Heating Degree Days 34    
Moisture  
Dew Point 29 °F    
Average Humidity 90    
Maximum Humidity 100    
Minimum Humidity 80    
Precipitation  
Precipitation 0.00 in - - ()
Sea Level Pressure  
Sea Level Pressure 30.24 in    
Wind  
Wind Speed 10 mph (North)    
Max Wind Speed 21 mph    
Max Gust Speed 30 mph    
Visibility 7 miles    
Events Rain , Snow    
Averages and records for this station are not official NWS values.
T = Trace of Precipitation, MM = Missing Value Source: NWS Daily Summary

Daily Weather History Graph

Daily Weather History Graph

Search for Another Location

Airport or City:

Trip Planner

Search our weather history database for the weather conditions in past years. The results will help you decide how hot, cold, wet, or windy it might be!

Date:

Astronomy

Nov. 21, 2013 Rise Set
Actual Time 7:15 AM CST 4:59 PM CST
Civil Twilight 6:46 AM CST 5:28 PM CST
Nautical Twilight 6:12 AM CST 6:02 PM CST
Astronomical Twilight 5:39 AM CST 6:34 PM CST
Moon 8:36 PM CST (11/21) 10:22 AM CST (11/21)
Length of Visible Light 10h 42m
Length of Day
9h 43m
Waning Gibbous, 85% of the Moon is Illuminated
Nov 21
Waning Gibbous
Nov 25
Last Quarter
Dec 2
New
Dec 9
First Quarter
Dec 17
Full

Hourly Weather History & Observations

Time (CST) Temp. Windchill Dew Point Humidity Pressure Visibility Wind Dir Wind Speed Gust Speed Precip Events Conditions
12:15 AM 39.2 °F 37.0 °F 35.6 °F 87% 29.96 in 10.0 mi East 3.5 mph - N/A   Clear
12:35 AM 37.4 °F - 35.6 °F 93% 29.96 in 10.0 mi Calm Calm - N/A   Clear
12:55 AM 37.4 °F - 35.6 °F 93% 29.96 in 10.0 mi Calm Calm - N/A   Clear
1:15 AM 35.6 °F - 33.8 °F 93% 29.97 in 10.0 mi Calm Calm - N/A   Clear
1:35 AM 35.6 °F - 33.8 °F 93% 29.98 in 10.0 mi Calm Calm - N/A   Clear
1:55 AM 35.6 °F - 35.6 °F 100% 29.99 in 10.0 mi Calm Calm - N/A   Clear
2:15 AM 37.4 °F - 35.6 °F 93% 30.00 in 10.0 mi Calm Calm - N/A   Mostly Cloudy
2:35 AM 35.6 °F - 33.8 °F 93% 30.00 in 10.0 mi Calm Calm - N/A   Overcast
2:55 AM 35.6 °F - 33.8 °F 93% 30.01 in 9.0 mi Calm Calm - N/A   Mostly Cloudy
3:15 AM 35.6 °F - 33.8 °F 93% 30.02 in 9.0 mi Calm Calm - N/A   Mostly Cloudy
3:35 AM 33.8 °F 30.8 °F 32.0 °F 93% 30.02 in 10.0 mi NNW 3.5 mph - N/A   Mostly Cloudy
3:55 AM 37.4 °F 30.8 °F 35.6 °F 93% 30.03 in 9.0 mi NNW 9.2 mph - N/A   Scattered Clouds
4:15 AM 37.4 °F 32.1 °F 35.6 °F 93% 30.03 in 10.0 mi North 6.9 mph 15.0 mph N/A   Partly Cloudy
4:35 AM 37.4 °F 31.4 °F 35.6 °F 93% 30.04 in 10.0 mi North 8.1 mph - N/A   Clear
4:55 AM 37.4 °F 32.1 °F 35.6 °F 93% 30.05 in 10.0 mi North 6.9 mph - N/A   Clear
5:15 AM 37.4 °F 29.3 °F 33.8 °F 87% 30.06 in 10.0 mi North 12.7 mph - N/A   Partly Cloudy
5:35 AM 35.6 °F 28.0 °F 33.8 °F 93% 30.08 in 10.0 mi North 10.4 mph - N/A   Mostly Cloudy
5:55 AM 37.4 °F 29.3 °F 33.8 °F 87% 30.09 in 10.0 mi North 12.7 mph - N/A   Overcast
6:15 AM 37.4 °F 28.5 °F 33.8 °F 87% 30.10 in 7.0 mi NNW 15.0 mph - N/A   Overcast
6:35 AM 35.6 °F 25.5 °F 33.8 °F 93% 30.11 in 7.0 mi NNW 17.3 mph 25.3 mph N/A   Overcast
6:55 AM 35.6 °F 26.2 °F 33.8 °F 93% 30.13 in 7.0 mi NNW 15.0 mph 23.0 mph N/A   Overcast
7:15 AM 35.6 °F 26.6 °F 33.8 °F 93% 30.15 in 8.0 mi NNW 13.8 mph 23.0 mph N/A   Overcast
7:35 AM 35.6 °F 25.9 °F 33.8 °F 93% 30.15 in 6.0 mi North 16.1 mph 23.0 mph N/A   Overcast
7:55 AM 35.6 °F 25.9 °F 33.8 °F 93% 30.15 in 4.0 mi North 16.1 mph 23.0 mph N/A   Overcast
8:15 AM 35.6 °F 26.2 °F 33.8 °F 93% 30.16 in 3.0 mi North 15.0 mph 26.5 mph N/A   Overcast
8:35 AM 35.6 °F 24.5 °F 33.8 °F 93% 30.17 in 2.5 mi North 20.7 mph - N/A   Overcast
8:55 AM 33.8 °F 22.8 °F 33.8 °F 100% 30.18 in 3.0 mi North 18.4 mph 28.8 mph N/A   Overcast
9:15 AM 33.8 °F 22.8 °F 32.0 °F 93% 30.19 in 2.5 mi North 18.4 mph 28.8 mph N/A Rain Light Rain
9:35 AM 33.8 °F 22.8 °F 32.0 °F 93% 30.20 in 3.0 mi North 18.4 mph 26.5 mph N/A Rain Light Rain
9:55 AM 33.8 °F 23.9 °F 32.0 °F 93% 30.21 in 3.0 mi North 15.0 mph 28.8 mph N/A   Overcast
10:15 AM 33.8 °F 22.5 °F 32.0 °F 93% 30.22 in 3.0 mi North 19.6 mph 26.5 mph N/A   Overcast
10:35 AM 32.0 °F 20.1 °F 30.2 °F 93% 30.23 in 3.0 mi North 19.6 mph 26.5 mph N/A Rain Light Rain
10:55 AM 32.0 °F 22.5 °F 30.2 °F 93% 30.25 in 4.0 mi North 12.7 mph 24.2 mph N/A Rain Light Rain
11:15 AM 32.0 °F 21.2 °F 30.2 °F 93% 30.25 in 3.0 mi North 16.1 mph 24.2 mph N/A Snow Light Snow
11:35 AM 32.0 °F 20.8 °F 30.2 °F 93% 30.25 in 4.0 mi North 17.3 mph 24.2 mph N/A Rain Light Rain
11:55 AM 32.0 °F 21.6 °F 30.2 °F 93% 30.25 in 5.0 mi North 15.0 mph 24.2 mph N/A Rain Light Rain
12:15 PM 32.0 °F 22.5 °F 28.4 °F 87% 30.25 in 6.0 mi North 12.7 mph 21.9 mph N/A Rain Light Rain
12:35 PM 30.2 °F 18.9 °F 28.4 °F 93% 30.25 in 5.0 mi North 16.1 mph - N/A Rain Light Freezing Rain
12:55 PM 30.2 °F 18.5 °F 28.4 °F 93% 30.26 in 6.0 mi North 17.3 mph 26.5 mph N/A Rain Light Freezing Rain
1:15 PM 30.2 °F 18.9 °F 28.4 °F 93% 30.26 in 5.0 mi North 16.1 mph - N/A   Overcast
1:35 PM 30.2 °F 18.5 °F 26.6 °F 86% 30.26 in 7.0 mi North 17.3 mph 24.2 mph N/A Rain Light Freezing Rain
1:55 PM 30.2 °F 19.3 °F 26.6 °F 86% 30.27 in 7.0 mi North 15.0 mph 26.5 mph N/A Rain Light Freezing Rain
2:15 PM 28.4 °F 17.0 °F 26.6 °F 93% 30.27 in 5.0 mi North 15.0 mph 26.5 mph N/A Rain Light Freezing Rain
2:35 PM 28.4 °F 16.6 °F 26.6 °F 93% 30.27 in 3.0 mi North 16.1 mph 24.2 mph N/A Rain Light Freezing Rain
2:55 PM 28.4 °F 15.1 °F 24.8 °F 86% 30.27 in 5.0 mi North 20.7 mph 27.6 mph N/A Rain Light Freezing Rain
3:15 PM 28.4 °F 15.8 °F 24.8 °F 86% 30.28 in 9.0 mi North 18.4 mph 26.5 mph N/A Rain Light Freezing Rain
3:35 PM 28.4 °F 17.0 °F 24.8 °F 86% 30.29 in 4.0 mi North 15.0 mph 21.9 mph N/A   Mostly Cloudy
3:55 PM 28.4 °F 16.2 °F 23.0 °F 80% 30.30 in 9.0 mi North 17.3 mph 24.2 mph N/A Rain Light Freezing Rain
4:15 PM 28.4 °F 15.8 °F 23.0 °F 80% 30.32 in 9.0 mi North 18.4 mph 25.3 mph N/A Rain Light Freezing Rain
4:35 PM 28.4 °F 15.4 °F 23.0 °F 80% 30.33 in 10.0 mi North 19.6 mph 26.5 mph N/A Rain Light Freezing Rain
4:55 PM 26.6 °F 15.7 °F 23.0 °F 86% 30.34 in 10.0 mi North 12.7 mph 25.3 mph N/A Rain Light Freezing Rain
5:15 PM 26.6 °F 14.7 °F 23.0 °F 86% 30.35 in 10.0 mi North 15.0 mph 27.6 mph N/A Rain Light Freezing Rain
5:35 PM 26.6 °F 13.8 °F 23.0 °F 86% 30.36 in 9.0 mi North 17.3 mph 25.3 mph N/A Rain Light Freezing Rain
5:55 PM 26.6 °F 13.4 °F 23.0 °F 86% 30.37 in 8.0 mi North 18.4 mph 24.2 mph N/A Rain Light Freezing Rain
6:15 PM 26.6 °F 13.4 °F 23.0 °F 86% 30.39 in 10.0 mi North 18.4 mph - N/A Rain Light Freezing Rain
6:35 PM 26.6 °F 14.7 °F 23.0 °F 86% 30.39 in 7.0 mi North 15.0 mph 21.9 mph N/A Rain Light Freezing Rain
6:55 PM 26.6 °F 13.8 °F 23.0 °F 86% 30.39 in 6.0 mi North 17.3 mph 24.2 mph N/A Rain Light Freezing Rain
7:15 PM 26.6 °F 13.4 °F 23.0 °F 86% 30.40 in 10.0 mi North 18.4 mph 29.9 mph N/A Rain Light Freezing Rain
7:35 PM 26.6 °F 14.3 °F 23.0 °F 86% 30.41 in 10.0 mi North 16.1 mph 23.0 mph N/A Rain Light Freezing Rain
7:55 PM 26.6 °F 14.3 °F 23.0 °F 86% 30.42 in 8.0 mi North 16.1 mph - N/A Rain Light Freezing Rain
8:15 PM 26.6 °F 14.3 °F 23.0 °F 86% 30.44 in 7.0 mi NNW 16.1 mph 23.0 mph N/A Rain Light Freezing Rain
8:35 PM 26.6 °F 14.3 °F 23.0 °F 86% 30.46 in 8.0 mi North 16.1 mph - N/A Rain Light Freezing Rain
8:55 PM 26.6 °F 15.7 °F 23.0 °F 86% 30.45 in 6.0 mi North 12.7 mph 20.7 mph N/A Rain Light Freezing Rain
9:15 PM 24.8 °F 11.5 °F 23.0 °F 93% 30.46 in 2.0 mi North 17.3 mph 25.3 mph N/A   Clear
9:35 PM 24.8 °F 11.5 °F 23.0 °F 93% 30.48 in 2.5 mi North 17.3 mph - N/A Snow Light Snow
9:55 PM 24.8 °F 12.9 °F 23.0 °F 93% 30.48 in 3.0 mi North 13.8 mph 21.9 mph N/A Snow Light Snow
10:15 PM 24.8 °F 11.9 °F 21.2 °F 86% 30.49 in 5.0 mi North 16.1 mph 23.0 mph N/A Rain Light Freezing Rain
10:35 PM 24.8 °F 12.9 °F 23.0 °F 93% 30.50 in 3.0 mi NNW 13.8 mph - N/A Rain Light Freezing Rain
10:55 PM 24.8 °F 14.0 °F 21.2 °F 86% 30.51 in 5.0 mi NNW 11.5 mph 21.9 mph N/A Rain Light Freezing Rain
11:15 PM 24.8 °F 11.9 °F 21.2 °F 86% 30.51 in 5.0 mi North 16.1 mph 24.2 mph N/A Rain Light Freezing Rain
11:35 PM 23.0 °F 10.1 °F 21.2 °F 93% 30.52 in 4.0 mi NNW 15.0 mph 23.0 mph N/A Snow Light Snow
11:55 PM 23.0 °F 9.2 °F 21.2 °F 93% 30.53 in 5.0 mi North 17.3 mph 26.5 mph N/A Snow Light Snow